UZB252 LFPG-UZTT

Flight info

Callsign UZB252
Flight time N/A
Altitude 35000
Route RANUX DCT LIPNI UN858 LIMGO Z111 TUTOV DCT SWALM N858 BOKSU/K0841F350 DCT INKUZ N858 RAMBE L736 NEBSU/K0852F370 L736 ARISA DCT ODIVA Q781 OGOLI N193 DIBAD DIBAD2T
Aircraft A21N/M-SDE2E3FGHIRWXY/LB1

Departure

Time 2026-05-01 10:14
Airport Charles de Gaulle International Airport (LFPG)

Arrival

Time N/A
Airport Tashkent International Airport (UZTT)
Time Latitude Longitude Altitude Speed Heading
2026-05-01 09:48 49.00477 2.55957 360 ft 0 kts 173°
2026-05-01 10:03 49.00499 2.55954 362 ft 4 kts 178°
2026-05-01 10:04 49.00526 2.55955 365 ft 4 kts 187°
2026-05-01 10:04 49.00551 2.55965 364 ft 5 kts 212°
2026-05-01 10:04 49.00564 2.55988 367 ft 4 kts 270°
2026-05-01 10:04 49.00564 2.55990 367 ft 2 kts 271°
2026-05-01 10:07 49.00564 2.55987 367 ft 1 kts 271°
2026-05-01 10:08 49.00567 2.55889 365 ft 8 kts 255°
2026-05-01 10:08 49.00565 2.55841 366 ft 7 kts 269°
2026-05-01 10:08 49.00563 2.55740 360 ft 12 kts 260°
2026-05-01 10:09 49.00554 2.55589 360 ft 17 kts 267°
2026-05-01 10:09 49.00531 2.55396 363 ft 20 kts 236°
2026-05-01 10:09 49.00400 2.55353 363 ft 22 kts 168°
2026-05-01 10:09 49.00250 2.55415 362 ft 23 kts 164°
2026-05-01 10:10 49.00089 2.55483 360 ft 25 kts 165°
2026-05-01 10:10 48.99920 2.55572 362 ft 26 kts 148°
2026-05-01 10:10 48.99772 2.55806 365 ft 12 kts 176°
2026-05-01 10:11 48.99717 2.55812 360 ft 8 kts 176°
2026-05-01 10:11 48.99714 2.55813 360 ft 0 kts 177°
2026-05-01 10:12 48.99693 2.55815 363 ft 5 kts 179°
2026-05-01 10:13 48.99647 2.55816 362 ft 8 kts 177°
2026-05-01 10:13 48.99616 2.55826 359 ft 4 kts 152°
2026-05-01 10:13 48.99603 2.55876 359 ft 7 kts 89°
2026-05-01 10:14 48.99629 2.56443 367 ft 88 kts 85°
2026-05-01 10:14 48.99700 2.57720 366 ft 150 kts 85°
2026-05-01 10:14 48.99795 2.59499 656 ft 172 kts 89°
2026-05-01 10:14 48.99886 2.61327 1336 ft 177 kts 87°
2026-05-01 10:15 48.99969 2.63221 2014 ft 182 kts 88°
2026-05-01 10:15 49.00072 2.65204 2602 ft 195 kts 88°
2026-05-01 10:15 49.00186 2.67334 3255 ft 213 kts 87°
2026-05-01 10:15 49.00314 2.69760 3747 ft 245 kts 87°
2026-05-01 10:16 49.00456 2.72471 4504 ft 265 kts 87°
2026-05-01 10:16 49.00601 2.75304 5584 ft 270 kts 87°
2026-05-01 10:16 49.00901 2.81080 7759 ft 278 kts 87°
2026-05-01 10:17 49.01053 2.84032 8835 ft 281 kts 87°
2026-05-01 10:17 49.01360 2.90091 10736 ft 300 kts 87°
2026-05-01 10:17 49.01526 2.93401 11150 ft 327 kts 87°
2026-05-01 10:18 49.02298 3.00794 11853 ft 378 kts 81°
2026-05-01 10:18 49.02791 3.04835 12261 ft 394 kts 81°
2026-05-01 10:18 49.03291 3.08977 12934 ft 400 kts 82°
2026-05-01 10:19 49.03791 3.13177 13690 ft 404 kts 82°
2026-05-01 10:19 49.04295 3.17412 14380 ft 408 kts 82°
2026-05-01 10:19 49.04792 3.21682 14993 ft 411 kts 82°
2026-05-01 10:20 49.05780 3.30344 16210 ft 418 kts 82°
2026-05-01 10:20 49.06278 3.34734 16787 ft 422 kts 82°